Regional Weather Roundup
Issued by NWS

Home | Current Version | Previous Version | Text Only | Print | Product List | Glossary On
Versions: 1 2 3 4 5 6 7 8 9 10 11 12 13 14 15 16 17 18 19 20 21 22 23 24 25 26 27
000
ASUS46 KPQR 042110
RWROR

OREGON REGIONAL WEATHER ROUNDUP
NATIONAL WEATHER SERVICE PORTLAND OR
200 PM PDT WED MAY 04 2016

NOTE: "FAIR" INDICATES FEW OR NO CLOUDS BELOW 12,000 FEET WITH
NO SIGNIFICANT WEATHER AND/OR OBSTRUCTIONS TO VISIBILITY.

ORZ001>013-042200-
NORTHWEST OREGON


CITY           SKY/WX    TMP DP  RH WIND       PRES   REMARKS
ASTORIA        PTSUNNY   57  48  72 NW15G24   30.04S
NEWPORT        CLOUDY    54  48  82 N17G23    30.05F
PORTLAND       CLOUDY    59  50  72 NW10      30.00S
VANCOUVER WA   CLOUDY    57  50  77 NW7       30.00S
SCAPPOOSE      CLOUDY    61  49  64 N10       29.99S
HILLSBORO      LGT RAIN  60  49  66 CALM      29.99F
AURORA         CLOUDY    59  50  72 VRB3      30.01F
MCMINNVILLE    CLOUDY    59  50  72 E5        30.00F
SALEM          LGT RAIN  59  51  75 N8        29.98F
CORVALLIS        N/A     57  48  72 N5        30.01S
EUGENE         CLOUDY    58  51  78 N9        29.99F
$$

ORZ021-028-042200-
SOUTHWEST OREGON


CITY           SKY/WX    TMP DP  RH WIND       PRES   REMARKS
NORTH BEND     CLOUDY    55  54  94 N22       29.97F
BROOKINGS      MOSUNNY   66  56  70 W6        29.87F
ROSEBURG       LGT RAIN  62  55  77 N7        29.95S
SEXTON SUMMIT  CLOUDY    53  49  86 SE6       29.95F
MEDFORD        CLOUDY    63  54  72 VRB5      29.90F
$$

ORZ014>016-041-042200-
COLUMBIA GORGE


CITY           SKY/WX    TMP DP  RH WIND       PRES   REMARKS
TROUTDALE      CLOUDY    59  49  69 W5        30.00R
THE DALLES     CLOUDY    73  51  46 NW5       29.87F
$$

ORZ029>031-041-044-049-050-061>064-502-503-505>511-042200-
EASTERN OREGON


CITY           SKY/WX    TMP DP  RH WIND       PRES   REMARKS
REDMOND        PTSUNNY   68  43  40 N9        29.90F
BEND           DRIZZLE   64  45  48 N8        29.91F
PRINEVILLE     PTSUNNY   66  46  48 VRB6G13   29.91F
KLAMATH FALLS  CLOUDY    59  46  62 VRB3      29.97F
LAKEVIEW       CLOUDY    54  46  76 W9        30.02R
HERMISTON      CLOUDY    73  50  44 NW7       29.88F
PENDLETON      CLOUDY    71  49  45 NW13      29.90S
JOHN DAY       CLOUDY    71  43  37 CALM      29.94S
MEACHAM        CLOUDY    67  47  48 VRB5      29.97F
LA GRANDE      CLOUDY    72  43  35 CALM      29.92F
BAKER CITY     CLOUDY    71  42  35 W7        29.93F
BURNS          CLOUDY    70  38  31 VRB6      29.95F
ROME             N/A     76  33  21 W13       29.91F
ONTARIO        CLOUDY    79  41  25 NW5       29.89F
$$




USA.gov is the U.S. government's official web portal to all federal, state and local government web resources and services.